W6BST Weather Reports


time (UTC)temp
C
wind
direction
speed
KPH
gust
KPH
rain 1hr
cm
rain 24hr
cm
rain mn
cm
humidity
%
barometer
mb
20260902144523 20 360 0.0 0.0 0.00 0.00 0.00 24 1017.6
20260902143019 20 360 0.0 0.0 0.00 0.00 0.00 26 1017.6
20260902141515 18 360 0.0 0.0 0.00 0.00 0.00 27 1017.5
20260902140014 18 360 0.0 0.0 0.00 0.00 0.00 28 1017.3
20260902134507 18 360 0.0 0.0 0.00 0.00 0.00 28 1017.1
20260902133011 18 360 0.0 0.0 0.00 0.00 0.00 28 1016.9
20260902131612 18 360 0.0 0.0 0.00 0.00 0.00 28 1016.6
20260902124557 19 360 0.0 0.0 0.00 0.00 0.00 27 1016.5
20260902123057 19 360 0.0 0.0 0.00 0.00 0.00 27 1016.4
20260902121557 19 360 0.0 0.0 0.00 0.00 0.00 27 1016.5
20260902120058 20 360 0.0 0.0 0.00 0.00 0.00 27 1016.4
20260902114612 19 360 0.0 12.9 0.00 0.00 0.00 27 1016.4
20260902113055 19 143 0.0 3.2 0.00 0.00 0.00 27 1016.4
20260902111554 20 360 0.0 0.0 0.00 0.00 0.00 26 1016.5
20260902104558 20 360 0.0 0.0 0.00 0.00 0.00 26 1016.4
20260902103102 20 360 0.0 0.0 0.00 0.00 0.00 26 1016.6
20260902101551 20 360 0.0 0.0 0.00 0.00 0.00 26 1016.4
20260902100051 20 360 0.0 0.0 0.00 0.00 0.00 25 1016.4
20260902094550 20 360 0.0 0.0 0.00 0.00 0.00 26 1016.5
20260902093050 19 360 0.0 0.0 0.00 0.00 0.00 27 1016.5
20260902091549 20 360 0.0 0.0 0.00 0.00 0.00 27 1016.7
20260902090048 20 360 0.0 0.0 0.00 0.00 0.00 27 1016.8
20260902084547 20 360 0.0 0.0 0.00 0.00 0.00 27 1016.8
20260902083046 19 360 0.0 6.4 0.00 0.00 0.00 28 1016.9
20260902081548 19 360 0.0 0.0 0.00 0.00 0.00 28 1017.0
20260902080051 19 360 0.0 0.0 0.00 0.00 0.00 29 1016.9
20260902074551 20 360 0.0 0.0 0.00 0.00 0.00 28 1016.8
20260902073049 20 360 0.0 20.9 0.00 0.00 0.00 29 1016.7
20260902071541 20 360 0.0 0.0 0.00 0.00 0.00 27 1016.7
20260902070038 21 360 0.0 0.0 0.00 0.00 0.00 27 1016.6
20260902064532 21 360 0.0 4.8 0.00 0.00 0.00 27 1016.4
20260902063029 21 360 0.0 0.0 0.00 0.00 0.00 26 1016.5
20260902061524 21 360 0.0 1.6 0.00 0.00 0.00 26 1016.4
20260902060020 22 360 0.0 0.0 0.00 0.00 0.00 23 1016.3
20260902054522 22 360 0.0 0.0 0.00 0.00 0.00 23 1016.5
20260902053011 22 360 0.0 0.0 0.00 0.00 0.00 21 1016.5
20260902051508 22 360 0.0 0.0 0.00 0.00 0.00 23 1016.5
20260902050004 22 360 0.0 0.0 0.00 0.00 0.00 21 1016.4
20260902044502 23 360 0.0 0.0 0.00 0.00 0.00 19 1016.2
20260902043001 23 360 0.0 0.0 0.00 0.00 0.00 18 1016.0
20260902041610 23 360 0.0 0.0 0.00 0.00 0.00 15 1015.9
20260902040103 23 360 0.0 0.0 0.00 0.00 0.00 13 1015.8
20260902034600 24 360 0.0 0.0 0.00 0.00 0.00 12 1015.4
20260902033106 25 360 0.0 0.0 0.00 0.00 0.00 12 1015.2
20260902031559 25 360 0.0 0.0 0.00 0.00 0.00 11 1015.0
20260902030059 26 360 0.0 0.0 0.00 0.00 0.00 10 1014.8
20260902024600 26 360 0.0 0.0 0.00 0.00 0.00 9 1014.6
20260902023057 26 360 0.0 0.0 0.00 0.00 0.00 8 1014.6
20260902021557 27 360 0.0 0.0 0.00 0.00 0.00 8 1014.5
20260902020059 28 360 0.0 0.0 0.00 0.00 0.00 7 1014.4
20260902014557 28 360 0.0 0.0 0.00 0.00 0.00 7 1014.4
20260902013056 29 360 0.0 0.0 0.00 0.00 0.00 6 1014.3
20260902011552 30 360 0.0 0.0 0.00 0.00 0.00 6 1014.3
20260902010048 31 360 0.0 0.0 0.00 0.00 0.00 6 1014.2
20260902004543 31 360 0.0 0.0 0.00 0.00 0.00 5 1014.4
20260902003044 31 360 0.0 0.0 0.00 0.00 0.00 5 1014.4
20260902001536 31 360 0.0 0.0 0.00 0.00 0.00 4 1014.5
20260902000031 32 360 0.0 9.7 0.00 0.00 0.00 4 1014.5
20260901234526 31 360 0.0 0.0 0.00 0.00 0.00 4 1014.5
20260901233022 31 360 0.0 0.0 0.00 0.00 0.00 5 1014.5
20260901231518 32 360 0.0 0.0 0.00 0.00 0.00 4 1014.5
20260901230017 31 360 0.0 1.6 0.00 0.00 0.00 7 1014.5
20260901224509 31 137 0.0 9.7 0.00 0.00 0.00 6 1014.6
20260901223011 31 138 0.0 12.9 0.00 0.00 0.00 6 1014.8
20260901221610 31 138 0.0 1.6 0.00 0.00 0.00 6 1014.6
20260901220122 31 360 0.0 0.0 0.00 0.00 0.00 6 1014.6
20260901214552 31 360 0.0 1.6 0.00 0.00 0.00 6 1014.8
20260901213111 31 360 0.0 11.3 0.00 0.00 0.00 6 1015.0
20260901211544 31 360 0.0 9.7 0.00 0.00 0.00 6 1015.1
20260901210047 31 360 0.0 1.6 0.00 0.00 0.00 6 1015.3
20260901204538 31 360 0.0 12.9 0.00 0.00 0.00 6 1015.5
20260901203048 31 132 0.0 0.0 0.00 0.00 0.00 6 1015.5
20260901201525 31 360 0.0 0.0 0.00 0.00 0.00 6 1016.0
20260901200027 30 360 0.0 0.0 0.00 0.00 0.00 6 1016.1
20260901194516 30 360 0.0 8.0 0.00 0.00 0.00 6 1016.3
20260901193012 30 360 0.0 22.5 0.00 0.00 0.00 7 1016.5
20260901191507 29 360 0.0 6.4 0.00 0.00 0.00 7 1016.7
20260901190007 28 360 0.0 0.0 0.00 0.00 0.00 7 1016.7
20260901184604 28 360 0.0 0.0 0.00 0.00 0.00 7 1016.8
20260901183100 28 360 0.0 0.0 0.00 0.00 0.00 7 1017.0
20260901181551 28 360 0.0 6.4 0.00 0.00 0.00 8 1017.2
20260901180046 27 360 0.0 1.6 0.00 0.00 0.00 8 1017.3
20260901174541 27 360 0.0 9.7 0.00 0.00 0.00 8 1017.5
20260901173050 26 360 0.0 0.0 0.00 0.00 0.00 8 1017.4
20260901171536 26 360 0.0 4.8 0.00 0.00 0.00 8 1017.3
20260901170028 26 360 0.0 1.6 0.00 0.00 0.00 8 1017.3
20260901164525 25 360 0.0 12.9 0.00 0.00 0.00 8 1017.3
20260901163019 25 360 0.0 1.6 0.00 0.00 0.00 8 1017.4
20260901161514 25 360 0.0 1.6 0.00 0.00 0.00 8 1017.4
20260901160009 24 360 0.0 1.6 0.00 0.00 0.00 8 1017.3
20260901154505 23 360 0.0 0.0 0.00 0.00 0.00 8 1017.1
20260901153002 23 360 0.0 29.0 0.00 0.00 0.00 8 1017.0
20260901151609 22 360 0.0 0.0 0.00 0.00 0.00 8 1017.0
20260901150056 22 360 0.0 0.0 0.00 0.00 0.00 7 1017.1